Location: Chrbon�n
(49.3588°N, 14.8653°E)
Time: 23:20:34
(UTC+00:00)

Daily predictions for brighter satellites

Satellite Brightness Start Highest point End
(mag) Time Altitude Azimuth Time Altitude Azimuth Time Altitude Azimuth
Cosmos 2285 Rocket 4.3 15:30:20 10° SSW 15:36:45 76° WNW 15:43:15 10° NNE
Cosmos 1777 Rocket 4.3 15:32:28 10° NNW 15:37:33 45° ENE 15:42:36 10° SE
NOSS 3-1 (C) 4.3 15:32:18 10° NW 15:38:57 44° NNE 15:46:47 10° ESE
Lacrosse 5 1.9 15:36:10 10° NW 15:41:19 77° NNE 15:46:25 10° ESE
NOSS 2-1 (C) 4.4 15:39:22 10° S 15:41:54 21° ESE 15:44:25 10° ENE
Cosmos 1603 3.8 15:37:06 10° SSW 15:42:51 89° WNW 15:48:39 10° NNE
ATLAS CENTAUR R/B 2.4 15:39:50 10° S 15:43:25 31° ESE 15:47:16 10° NE
SL-16 R/B 3.7 15:38:38 10° WSW 15:43:38 31° NW 15:48:41 10° NNE
USA 234 4.0 15:37:52 10° SE 15:44:18 59° SW 15:50:45 10° WNW
Cosmos 1939 Rocket 3.2 15:44:23 10° SE 15:48:19 45° ENE 15:52:16 10° N
SeaSat 1 4.4 15:45:06 10° N 15:48:50 22° NW 15:52:34 10° W
Okean 3 Rocket 3.9 15:46:29 10° N 15:50:52 47° ENE 15:55:13 10° SSE
NOSS 2-1 (D) 4.1 15:48:20 10° S 15:51:07 25° ESE 15:53:52 10° ENE
ATLAS 3B R/B 3.6 15:47:39 10° NW 15:54:43 61° WSW 16:02:04 10° SSE
GEOS 3 Rocket 3.9 15:51:02 10° ESE 15:56:00 46° NE 16:00:57 10° NNW
Cosmos 1862 3.4 15:53:59 10° N 15:57:54 54° ENE 16:01:48 10° SSE
Cosmos 2098 Rocket 4.1 15:52:37 10° N 15:58:40 78° E 16:05:45 10° SSE
Cosmos 1461 3.2 15:55:21 10° SSW 15:59:30 52° ESE 16:03:28 10° NE
ATLAS 5 CENTAUR R/B 3.6 15:54:49 10° NW 16:00:07 46° WSW 16:06:20 10° SSE
USA 308 3.8 15:56:17 10° SSW 16:00:09 35° SE 16:03:43 12° ENE
CZ-2D R/B 4.1 15:57:11 10° SE 16:00:32 29° ENE 16:03:54 10° N
Cosmos 1812 Rocket 4.4 15:56:29 10° SSW 16:00:51 54° WNW 16:05:16 10° N
PSLV R/B 4.2 15:58:51 10° SE 16:02:12 34° ENE 16:05:35 10° N
CZ-4C R/B 3.8 16:00:21 10° NW 16:05:33 26° NNE 16:10:57 12° ENE
SJ 16-02 1.5 16:01:33 10° NNW 16:05:51 52° ENE 16:10:08 10° SE
CZ-2C R/B 3.2 16:00:56 10° S 16:06:01 78° WSW 16:10:54 10° NNW
Cosmos 1943 3.7 16:00:50 10° SW 16:06:25 61° WNW 16:12:02 10° NNE
Cosmos-2242 3.5 16:04:48 10° SSW 16:09:05 65° WNW 16:13:23 10° N
FengYun 1-2 T 4.3 16:03:29 10° SSE 16:09:06 86° ENE 16:14:43 10° NNW
NOAA 6 4.0 16:07:27 10° SSE 16:12:36 78° ENE 16:17:45 10° NNW
CZ-4B R/B 3.6 16:08:32 10° SE 16:13:32 38° ENE 16:18:28 10° N
CORIOLIS 4.1 16:09:20 10° SSE 16:14:41 72° ENE 16:20:06 10° NNW
Cosmos 1842 Rocket 4.3 16:11:31 10° SSE 16:15:29 33° E 16:19:31 10° NNE
Cosmos 1833 Rocket 4.4 16:14:46 10° ESE 16:16:47 12° E 16:17:02 12° E
CZ-4B R/B 3.8 16:15:18 10° S 16:19:28 54° W 16:23:28 10° NNW
CZ-4 R/B 3.3 16:24:42 14° NE 16:24:42 14° NE 16:25:59 10° NNE
Iridium 2 3.7 16:21:14 10° N 16:25:02 84° W 16:28:48 10° S
Cosmos 1766 Rocket 3.8 16:21:53 10° NNW 16:26:13 73° W 16:30:32 10° S
SL-08 R/B 4.4 16:25:49 10° N 16:30:25 46° WNW 16:34:55 10° SW
USA 305 3.0 16:26:49 10° SW 16:30:59 61° SE 16:33:32 22° ENE
Cosmos 1606 2.6 16:28:09 10° S 16:31:51 62° E 16:35:35 10° NNE
Sich 1 4.3 16:29:44 10° NNE 16:32:14 19° NE 16:32:14 19° NE
ARGOS 3.5 16:28:45 10° SE 16:33:48 42° ENE 16:38:52 10° N
Okean O Rocket 2.0 16:32:26 10° SE 16:36:34 39° ENE 16:40:45 10° N
USA 276 2.0 16:33:53 10° W 16:37:01 76° N 16:38:19 32° E
COSMO-SKYMED 1 3.3 16:34:16 17° NE 16:37:01 32° E 16:40:56 10° SSE
Cosmos 1937 Rocket 4.5 16:34:37 10° N 16:39:05 26° NE 16:40:52 22° E
Cosmos 1464 Rocket 4.0 16:34:08 10° S 16:40:28 80° E 16:46:53 10° NNE
Aureole 3 4.4 16:38:08 10° SSW 16:43:20 80° W 16:49:58 10° N
ERBS 3.2 16:44:01 10° SSW 16:46:52 30° SE 16:47:12 29° ESE
Meteor 2-19 Rocket 4.4 16:41:15 10° N 16:47:22 88° E 16:53:28 10° S
Cosmos 1763 Rocket 4.3 16:43:52 10° SSE 16:48:03 26° E 16:48:40 26° E
Cosmos 2221 2.4 16:45:40 10° S 16:49:56 83° E 16:54:14 10° NNE
NOSS 2-1 (E) 2.7 16:47:48 10° SW 16:51:03 88° NW 16:52:18 36° NE
USA 267 3.7 16:47:44 20° NE 16:52:18 54° NNW 16:58:37 10° W
CZ-2C R/B 2.8 16:47:52 10° NNE 16:52:58 48° E 16:57:57 10° S
ISS -3.7 16:50:33 10° W 16:53:57 68° NNW 16:54:50 45° NE
Cosmos 1340 Rocket 2.7 16:51:43 10° N 16:55:46 68° ENE 16:59:49 10° SSE
deb Chang Zheng 4 3.4 16:53:26 10° SSE 16:57:43 76° ENE 17:02:03 10° NNW
YAOGAN 1 3.4 16:58:27 30° NE 16:58:27 30° NE 17:01:35 10° N
Cosmos 1933 4.1 16:54:21 10° SSE 16:57:31 33° ESE 16:57:31 33° ESE
deb Kosmos-1763 3.7 16:54:51 10° SSW 16:58:14 69° ESE 16:59:07 45° NE
Cosmos 2322 Rocket 4.2 16:57:39 10° N 16:59:31 11° NNE 16:59:31 11° NNE
Cosmos 990 Rocket 4.0 16:54:50 10° NNW 17:00:00 59° ENE 17:05:07 10° SE
Nadezhda 4 Rocket 4.1 16:53:45 10° N 17:00:05 85° W 17:06:25 10° S
SL-19 R/B 4.5 16:55:33 10° NNE 17:01:23 62° ESE 17:07:37 10° S
Cosmos 1271 Rocket 4.1 16:57:52 10° SW 17:01:34 40° WNW 17:05:19 10° N
USA 229 DEB 3.9 16:55:01 10° NW 17:02:08 60° NE 17:07:27 21° ESE
USA 229 3.9 16:55:07 10° NW 17:02:14 59° NE 17:07:28 21° ESE
USA 306 2.8 16:58:23 10° WSW 17:02:39 88° SSE 17:04:01 42° ENE
Lacrosse 5 rocket 2.5 16:59:38 10° WNW 17:02:59 27° N 17:03:54 25° NNE
Landsat 5 3.8 17:02:19 39° ENE 17:03:02 42° E 17:06:59 10° S
Cosmos 1092 Rocket 3.9 17:00:42 10° N 17:07:04 69° ENE 17:13:22 10° SSE
Cosmos 1408 Rocket 4.2 17:03:43 10° NNW 17:07:58 56° W 17:12:13 10° S
Cosmos 1743 Rocket 3.4 17:05:37 10° N 17:10:00 84° E 17:14:18 10° S
ATLAS 2AS CENTAUR R/B 4.0 17:03:03 10° W 17:10:13 38° NNW 17:15:29 17° NNE
CZ-4 R/B 4.3 17:06:53 10° SSE 17:10:58 76° ENE 17:15:07 10° N
SL-16 R/B 4.0 17:08:48 10° N 17:11:16 15° NNE 17:11:16 15° NNE
Cosmos 1697 Rocket 2.8 17:06:50 10° NNW 17:12:20 50° NE 17:14:22 34° ESE
Cosmos 1980 Rocket 2.9 17:07:36 10° NNW 17:12:40 32° NE 17:12:43 32° NE
H-2A R/B 2.5 17:08:06 10° S 17:13:20 64° WSW 17:18:28 10° NNW
COSMOS 2406 4.3 17:11:37 10° SSE 17:15:10 26° SE 17:15:10 26° SE
USA 307 2.8 17:13:27 10° WSW 17:17:45 85° NNW 17:18:33 58° NE
SJ-11-01 4.2 17:13:48 10° SSE 17:18:34 88° WSW 17:23:21 10° NNW
Cosmos 44 3.1 17:13:49 10° NW 17:18:42 88° WSW 17:20:56 31° SE
Cosmos 2034 Rocket 4.1 17:15:44 10° SSW 17:21:54 74° W 17:28:05 10° N
ATLAS CENTAUR R/B 2.4 17:18:11 10° WSW 17:22:10 42° NW 17:23:56 28° N
Cosmos 1627 Rocket 4.3 17:16:17 10° N 17:22:32 76° E 17:28:41 10° SSE
Meteor 2-14 Rocket 4.3 17:17:02 10° N 17:23:10 68° ENE 17:29:13 10° SSE
Lacrosse 5 3.8 17:19:35 10° WNW 17:23:55 28° SW 17:28:14 10° S
SKYMED 2 3.5 17:22:52 27° NNE 17:25:14 87° WNW 17:29:35 10° SSW
NOSS 3-1 (A) 3.9 17:18:12 10° NW 17:25:31 78° NE 17:31:39 21° SE
Cosmos 1428 Rocket 4.3 17:19:24 10° N 17:25:33 80° E 17:31:41 10° SSE
Meteor 1-14 Rocket 4.5 17:21:22 10° N 17:26:45 45° ENE 17:26:45 45° ENE
Cosmos 1809 Rocket 4.3 17:21:55 10° N 17:28:04 85° ENE 17:34:10 10° S
Cosmos 1898 Rocket 3.3 17:23:35 10° NNW 17:28:54 74° ENE 17:31:16 33° SE
MOS 1-B Rocket 4.0 17:24:25 10° NNE 17:30:04 77° WNW 17:36:11 10° SSW
NOSS 3-1 (C) 4.2 17:23:04 10° NW 17:30:26 74° SW 17:39:06 10° SSE
Cosmos 1656 3.9 17:26:01 10° NNW 17:31:30 69° WSW 17:37:01 10° SSE
NOSS 2-1 (C) 4.2 17:29:08 10° WSW 17:32:06 33° NW 17:32:11 33° NW
Cosmos 2084 3.8 17:30:21 10° NW 17:33:54 52° N 17:33:54 52° N
Meteor 2-21 Rocket 4.3 17:29:08 10° N 17:35:15 63° ENE 17:41:17 10° SSE
NOAA 15 4.4 17:31:51 10° SSE 17:37:09 76° ENE 17:42:27 10° NNW
NOSS 2-2 (D) 4.4 17:34:30 10° NW 17:38:55 47° NNE 17:38:55 47° NNE
SL-08 RB Rocket 3.7 17:34:54 10° S 17:39:35 81° WSW 17:44:15 10° NNW
USA 308 3.0 17:35:38 10° WSW 17:39:45 68° NW 17:39:45 68° NW
NOSS 2-2 (E) 4.3 17:36:27 10° NW 17:41:20 57° NE 17:41:37 56° NE
Cosmos 468 Rocket 3.8 17:37:35 10° SSW 17:42:42 71° ESE 17:42:42 71° ESE
SJ 16-02 4.1 17:40:56 10° NW 17:44:03 19° W 17:47:08 10° SW
Cosmos 2279 Rocket 4.1 17:38:11 10° SSE 17:43:30 51° ESE 17:43:30 51° ESE
Cosmos 2360 4.1 17:41:40 10° NNW 17:47:27 80° ENE 17:48:27 62° SE
Cosmos 1634 Rocket 3.9 17:43:57 10° S 17:50:16 89° E 17:56:40 10° N
Cosmos 1805 Rocket 4.1 17:47:35 10° NNW 17:51:52 57° W 17:56:06 10° S
CZ-4C R/B 3.1 17:49:03 10° NW 17:55:41 49° NE 17:56:09 49° NE
CZ-4 R/B 3.4 18:00:42 21° NNW 18:00:42 21° NNW 18:02:10 10° NNW
IRS-1C Rocket 4.4 18:00:19 54° N 18:00:19 54° N 18:04:24 10° NNW
Cosmos 1833 Rocket 2.8 17:54:06 10° SSW 17:58:47 60° S 17:58:47 60° S
ATLAS 5 CENTAUR R/B 3.0 17:52:29 10° NW 17:58:54 46° NNW 17:58:54 46° NNW
USA 305 4.3 18:06:48 10° W 18:09:32 35° WNW 18:09:32 35° WNW
Okean O Rocket 3.7 18:09:18 10° SSW 18:13:02 26° W 18:16:48 10° NW
COSMO-SKYMED 1 4.3 18:11:30 23° NNW 18:13:09 31° WNW 18:16:58 10° SW
ATLAS CENTAUR R/B 3.1 18:12:32 10° SW 18:19:17 56° SW 18:19:17 56° SW
Cosmos 1937 Rocket 4.0 18:16:12 10° NNW 18:21:06 57° W 18:21:06 57° W
Cosmos 1763 Rocket 4.4 18:24:41 10° SW 18:28:45 44° W 18:28:45 44° W
Cosmos 2360 Rocket 4.5 18:26:34 10° N 18:27:22 13° N 18:27:22 13° N
ISS -0.2 18:27:39 10° WNW 18:27:49 11° WNW 18:27:49 11° WNW
CZ-2C R/B 4.3 18:28:53 11° N 18:33:03 29° WNW 18:37:28 10° WSW
USA 267 3.8 18:35:05 46° N 18:35:05 46° N 18:40:54 10° WNW
Lacrosse 5 rocket 4.4 18:39:18 10° NW 18:39:29 11° NW 18:39:29 11° NW
Cosmos 2322 Rocket 4.4 18:40:13 10° NNW 18:41:19 15° N 18:41:19 15° N
Cosmos 1697 Rocket 4.2 18:51:12 10° NW 18:56:04 31° WSW 18:56:10 31° WSW
Cosmos 1980 Rocket 3.7 18:51:26 10° NW 18:54:31 32° NW 18:54:31 32° NW
SL-16 R/B 4.4 18:51:56 10° NNW 18:53:08 16° NNW 18:53:08 16° NNW
ATLAS 2AS CENTAUR R/B 4.3 18:57:02 10° NW 19:02:55 27° N 19:02:55 27° N
CZ-4C R/B 4.1 19:37:31 10° NW 19:41:21 35° WNW 19:41:21 35° WNW
